[[{"header":{"parameterUnit":"m.s-1","parameterCategory":1,"la1":30.2991,"la2":30.254,"lo1":-89.0895,"lo2":-89.0444,"dy":0.0017,"dx":0.0017,"nx":28,"ny":28,"refTime":"2025-04-28T09:00:00:Z","depth":0,"parameterNumber":2,"parameterNumberName":"U-component_of_WINDS"},"data":[0,0,0,0,0,0,0,0,0,0,0,0,0,0,0,0,0,0,0,0,0,0,0,0,0,0,0,0,0,0,0,0,0,0,0,0,0,0,0,0,0,0,0,0,0,0,0,0,0,0,0,0,0,0,0,0,0,0,-1.5281,-1.5281,0,-1.5231,-1.5231,-1.523,-1.5193,-1.5192,-1.5192,-1.5192,-1.5138,-1.5137,-1.5136,0,0,0,0,0,0,0,0,0,0,0,0,0,-1.5345,-1.5344,-1.5281,-1.5281,-1.528,-1.5231,-1.523,-1.523,-1.5193,-1.5192,-1.5192,-1.5191,-1.5138,-1.5137,-1.5136,0,0,0,0,0,0,0,0,0,0,0,0,0,-1.5308,-1.5344,-1.5281,-1.5256,-1.5253,-1.5231,-1.523,-1.523,-1.5193,-1.5192,-1.5192,-1.5191,-1.5139,-1.5137,-1.5136,-1.5135,0,0,-1.513,-1.513,0,0,0,0,0,0,0,0,-1.531,-1.5306,-1.526,-1.5257,-1.5254,-1.5218,-1.5233,-1.5198,-1.5193,-1.5215,-1.5192,-1.5191,-1.5165,-1.5161,-1.5153,-1.5133,-1.513,-1.513,-1.5129,-1.5129,-1.5128,0,0,0,0,0,0,0,-1.5313,-1.5308,-1.5261,-1.5259,-1.5256,-1.5247,-1.5241,-1.5226,-1.5193,-1.5213,-1.5211,-1.5205,-1.5163,-1.5154,-1.5151,-1.5129,-1.513,-1.5129,-1.5128,-1.5127,-1.5109,-1.511,0,0,0,0,0,0,-1.532,-1.531,-1.5263,-1.526,-1.5282,-1.5246,-1.5239,-1.523,-1.5193,-1.5187,-1.5206,-1.5204,-1.5157,-1.5153,-1.5149,-1.5147,-1.5129,-1.5127,-1.5126,-1.5109,-1.511,-1.511,0,0,0,0,0,0,-1.5321,-1.5316,-1.5265,-1.5284,-1.5277,-1.5245,-1.5235,-1.5229,-1.522,-1.5188,-1.5182,-1.5203,-1.5157,-1.5151,-1.514,-1.5145,-1.5126,-1.5125,-1.5108,-1.5109,-1.511,-1.5143,0,0,0,0,0,0,-1.5323,-1.5316,-1.5316,-1.5285,-1.5276,-1.5256,-1.5235,-1.5228,-1.5218,-1.5215,-1.5183,-1.5178,-1.5156,-1.5142,-1.5138,-1.5142,-1.5123,-1.5108,-1.5109,-1.511,-1.5142,-1.5145,-1.5148,0,0,0,0,0,-1.5325,-1.5326,-1.5316,-1.531,-1.5275,-1.5257,-1.5252,-1.5227,-1.5218,-1.5217,-1.5197,-1.5179,-1.5146,-1.5141,-1.5136,-1.514,-1.5107,-1.5108,-1.5109,-1.514,-1.5145,-1.5148,0,0,0,0,0,0,-1.5357,-1.5321,-1.5309,-1.53,-1.5282,-1.525,-1.5248,-1.5233,-1.5216,-1.5213,-1.5184,-1.5177,-1.5169,-1.5153,-1.5149,-1.5139,-1.5124,-1.5124,-1.5149,-1.5153,-1.5157,-1.516,-1.5122,0,0,0,0,0,-1.5363,-1.5352,-1.5321,-1.5316,-1.5307,-1.528,-1.5271,-1.5254,-1.5234,-1.5226,-1.5204,-1.5185,-1.517,-1.5161,-1.5145,-1.514,-1.5133,-1.514,-1.5144,-1.5147,-1.5147,-1.5145,-1.5148,-1.5114,-1.5114,-1.5114,0,0,-1.5374,-1.5354,-1.5348,-1.5322,-1.5305,-1.5295,-1.5273,-1.5262,-1.5254,-1.5223,-1.5212,-1.5196,-1.5172,-1.5164,-1.516,-1.5151,-1.5155,-1.5148,-1.5151,-1.5149,-1.5147,-1.515,-1.5153,-1.5115,-1.5115,-1.5115,0,0,-1.5391,-1.5374,-1.5368,-1.5354,-1.533,-1.5312,-1.5312,-1.5283,-1.5272,-1.526,-1.5238,-1.5228,-1.5203,-1.5188,-1.5177,-1.5191,-1.5174,-1.5187,-1.5204,-1.5203,-1.5205,-1.5208,-1.5214,-1.5216,-1.5188,-1.5188,-1.5188,0,-1.5408,-1.5391,-1.5367,-1.5358,-1.5348,-1.5322,-1.5317,-1.5304,-1.5276,-1.527,-1.5261,-1.5231,-1.5214,-1.5203,-1.5207,-1.5198,-1.5197,-1.519,-1.5207,-1.5209,-1.5211,-1.5216,-1.5219,-1.519,-1.5189,-1.5189,-1.5189,0,-1.5414,-1.5403,-1.5402,-1.5378,-1.5367,-1.536,-1.5336,-1.5328,-1.5314,-1.5297,-1.5287,-1.5265,-1.5246,-1.5242,-1.5227,-1.523,-1.5226,-1.5213,-1.5197,-1.5216,-1.5221,-1.5223,-1.5192,-1.5192,-1.5191,-1.5191,0,0,-1.5445,-1.5411,-1.5411,-1.5401,-1.5375,-1.5366,-1.5359,-1.5342,-1.5337,-1.532,-1.5313,-1.5295,-1.5284,-1.5271,-1.5254,-1.5253,-1.5268,-1.524,-1.5239,-1.5247,-1.5272,-1.5282,-1.5285,-1.5258,-1.5258,-1.5258,-1.5274,0,-1.5458,-1.5444,-1.5424,-1.5417,-1.5407,-1.5384,-1.5379,-1.5362,-1.5348,-1.5338,-1.5321,-1.5309,-1.5294,-1.5287,-1.5285,-1.5267,-1.5273,-1.5265,-1.5252,-1.5251,-1.5258,-1.5287,-1.5297,-1.5313,-1.5276,-1.5276,-1.5276,0,-1.5469,-1.5456,-1.5448,-1.5426,-1.5421,-1.5416,-1.54,-1.5391,-1.5373,-1.5362,-1.5351,-1.5333,-1.5326,-1.5313,-1.5302,-1.5298,-1.5291,-1.5282,-1.5282,-1.5279,-1.5265,-1.5285,-1.5318,-1.532,-1.5279,-1.5279,-1.5279,0,-1.5494,-1.5474,-1.5467,-1.5459,-1.5433,-1.543,-1.5419,-1.5401,-1.5393,-1.5379,-1.5374,-1.5359,-1.5351,-1.534,-1.532,-1.5312,-1.5312,-1.5297,-1.5304,-1.5304,-1.5304,-1.5304,-1.5335,-1.53,-1.53,-1.53,-1.53,0,-1.5509,-1.5506,-1.5478,-1.5474,-1.547,-1.5448,-1.5445,-1.5431,-1.5416,-1.541,-1.5389,-1.5383,-1.5357,-1.5349,-1.5333,-1.5328,-1.5324,-1.5315,-1.5311,-1.5317,-1.5318,-1.5312,-1.531,-1.5301,-1.53,-1.53,-1.53,0,-1.5535,-1.5517,-1.5508,-1.5485,-1.548,-1.5478,-1.5458,-1.5454,-1.5439,-1.5431,-1.5428,-1.5405,-1.5395,-1.5374,-1.5357,-1.5346,-1.5345,-1.5337,-1.5351,-1.5348,-1.5357,-1.5357,-1.5385,-1.5388,-1.5351,-1.5351,-1.5352,0,-1.5546,-1.5543,-1.5521,-1.5516,-1.5506,-1.5497,-1.549,-1.5469,-1.5462,-1.5444,-1.5442,-1.543,-1.5419,-1.5404,-1.5385,-1.5373,-1.5365,-1.5376,-1.5363,-1.537,-1.5366,-1.5366,-1.5367,-1.5379,-1.5379,-1.538,-1.538,0,-1.5568,-1.556,-1.555,-1.5538,-1.553,-1.5519,-1.5507,-1.5504,-1.5481,-1.5474,-1.5464,-1.5456,-1.544,-1.5429,-1.5415,-1.5403,-1.5388,-1.5385,-1.5386,-1.5392,-1.54,-1.5396,-1.5359,-1.5384,-1.5383,-1.5383,-1.5383,-1.5383,-1.5586,-1.5584,-1.5569,-1.5559,-1.5549,-1.5539,-1.5535,-1.5521,-1.5512,-1.5498,-1.5487,-1.5478,-1.5463,-1.5443,-1.5433,-1.5426,-1.5418,-1.5419,-1.542,-1.542,-1.5423,-1.5402,-1.5423,-1.5423,-1.5423,-1.5423,-1.5423,0,-1.5607,-1.5597,-1.5589,-1.5574,-1.5568,-1.5556,-1.5543,-1.5538,-1.5531,-1.5519,-1.551,-1.5499,-1.5489,-1.5472,-1.546,-1.5458,-1.5451,-1.5456,-1.5456,-1.5454,-1.543,-1.5431,-1.5462,-1.5462,-1.5462,-1.5462,-1.5462,-1.5462,-1.5617,-1.5613,-1.5604,-1.5595,-1.5584,-1.5577,-1.557,-1.5562,-1.5552,-1.5542,-1.5534,-1.5523,-1.5509,-1.5498,-1.5488,-1.5484,-1.5481,-1.5488,-1.5481,-1.5459,-1.5455,-1.5451,-1.5452,-1.5487,-1.5487,-1.5505,-1.5505,-1.5505]},{"header":{"parameterUnit":"m.s-1","parameterCategory":1,"la1":30.2991,"la2":30.254,"lo1":-89.0895,"lo2":-89.0444,"dy":0.0017,"dx":0.0017,"nx":28,"ny":28,"refTime":"2025-04-28T09:00:00:Z","depth":0,"parameterNumber":3,"parameterNumberName":"V-component_of_WINDS"},"data":[0,0,0,0,0,0,0,0,0,0,0,0,0,0,0,0,0,0,0,0,0,0,0,0,0,0,0,0,0,0,0,0,0,0,0,0,0,0,0,0,0,0,0,0,0,0,0,0,0,0,0,0,0,0,0,0,0,0,3.6533,3.6533,0,3.6516,3.6516,3.6516,3.6543,3.6544,3.6545,3.6546,3.6523,3.6521,3.652,0,0,0,0,0,0,0,0,0,0,0,0,0,3.6586,3.6585,3.6533,3.6533,3.6533,3.6516,3.6516,3.6516,3.6543,3.6544,3.6545,3.6546,3.6523,3.6521,3.6519,0,0,0,0,0,0,0,0,0,0,0,0,0,3.6565,3.6584,3.6533,3.6545,3.6545,3.6516,3.6516,3.6515,3.6543,3.6544,3.6545,3.6547,3.6524,3.6521,3.6519,3.6476,0,0,3.6512,3.6511,0,0,0,0,0,0,0,0,3.6566,3.6563,3.6543,3.6544,3.6545,3.6533,3.6526,3.6502,3.6542,3.6543,3.6546,3.6547,3.6525,3.6522,3.6516,3.6475,3.6474,3.6512,3.6511,3.651,3.6509,0,0,0,0,0,0,0,3.6567,3.6564,3.6526,3.6543,3.6544,3.6549,3.6548,3.6521,3.6526,3.6543,3.6545,3.6543,3.6525,3.6518,3.6515,3.6474,3.6512,3.651,3.6509,3.6508,3.6398,3.6397,0,0,0,0,0,0,3.6568,3.6565,3.6527,3.6526,3.6559,3.6547,3.6546,3.6535,3.6526,3.6527,3.6542,3.6545,3.6521,3.6518,3.6515,3.6464,3.651,3.6508,3.6506,3.64,3.6398,3.6396,0,0,0,0,0,0,3.6569,3.6565,3.6528,3.6546,3.6542,3.6545,3.6533,3.6534,3.6527,3.6525,3.6526,3.6534,3.6522,3.6518,3.6486,3.6464,3.6507,3.6505,3.6401,3.6399,3.6397,3.6363,0,0,0,0,0,0,3.6571,3.6565,3.6549,3.6545,3.6541,3.65,3.6532,3.6533,3.6524,3.6527,3.6518,3.6518,3.6523,3.6489,3.6484,3.6461,3.6503,3.6403,3.64,3.6398,3.6366,3.636,3.6354,0,0,0,0,0,3.6572,3.6539,3.6548,3.6544,3.6522,3.6499,3.6496,3.6504,3.6522,3.6506,3.6505,3.6518,3.6467,3.6486,3.648,3.6456,3.6405,3.6401,3.6398,3.6368,3.6361,3.6354,0,0,0,0,0,0,3.6538,3.6539,3.6549,3.6514,3.6507,3.6504,3.6484,3.6496,3.6482,3.6485,3.6494,3.6492,3.6458,3.6454,3.6475,3.6415,3.6439,3.6434,3.6419,3.6411,3.6406,3.6407,3.6501,0,0,0,0,0,3.6527,3.651,3.6511,3.648,3.6476,3.648,3.6471,3.6478,3.647,3.6466,3.6463,3.6453,3.6436,3.6423,3.6407,3.6366,3.6364,3.6347,3.6341,3.6336,3.6331,3.631,3.6302,3.6384,3.6385,3.6385,0,0,3.6502,3.6501,3.6489,3.6473,3.6468,3.6449,3.6477,3.6456,3.6442,3.6463,3.6433,3.643,3.642,3.6384,3.6368,3.638,3.6309,3.6332,3.6328,3.6326,3.6305,3.6298,3.6291,3.6382,3.6383,3.6383,0,0,3.6449,3.6446,3.642,3.6415,3.6409,3.6412,3.6406,3.6402,3.6402,3.6373,3.6388,3.6371,3.6339,3.6332,3.6324,3.6269,3.628,3.6263,3.6232,3.6211,3.6204,3.6199,3.6179,3.6172,3.6259,3.6258,3.6258,0,3.6419,3.6393,3.6405,3.6383,3.6375,3.6396,3.6369,3.6363,3.635,3.6343,3.6357,3.632,3.6314,3.6277,3.6264,3.6256,3.6249,3.6263,3.6205,3.6199,3.6194,3.6175,3.6167,3.6256,3.6257,3.6257,3.6257,0,3.6356,3.6338,3.6317,3.6307,3.6297,3.6273,3.628,3.6268,3.6276,3.6278,3.6248,3.6243,3.6226,3.6218,3.6224,3.6181,3.6189,3.6203,3.6228,3.6184,3.6166,3.6159,3.6253,3.6254,3.6255,3.6255,0,0,3.6278,3.6277,3.6269,3.6265,3.626,3.6245,3.6222,3.6207,3.6197,3.6187,3.6167,3.6141,3.6155,3.6146,3.6153,3.6134,3.6091,3.6151,3.6151,3.614,3.6043,3.6032,3.6023,3.6099,3.6098,3.6097,3.6044,0,3.6225,3.6187,3.6197,3.6158,3.6141,3.6161,3.6141,3.6135,3.6136,3.6121,3.6122,3.6103,3.6123,3.6118,3.6101,3.61,3.6072,3.6104,3.608,3.6079,3.6081,3.6014,3.6002,3.5951,3.6037,3.6036,3.6035,0,3.6157,3.6148,3.6108,3.6106,3.61,3.6081,3.6069,3.6055,3.6048,3.605,3.6041,3.6052,3.6027,3.6053,3.6019,3.6041,3.6032,3.603,3.6028,3.6025,3.6054,3.6009,3.5936,3.5928,3.6024,3.6025,3.6026,0,3.6104,3.6082,3.6055,3.6051,3.6049,3.6035,3.6033,3.6028,3.6019,3.6008,3.6002,3.5988,3.598,3.5968,3.5974,3.5992,3.5939,3.5964,3.5939,3.5939,3.5926,3.5927,3.585,3.5921,3.5921,3.5921,3.5921,0,3.6043,3.6017,3.6031,3.6015,3.5987,3.5999,3.5971,3.5971,3.5967,3.5949,3.5965,3.5948,3.5958,3.5942,3.5946,3.5917,3.5913,3.5914,3.5915,3.5912,3.5912,3.5905,3.5909,3.5919,3.592,3.592,3.592,0,3.5979,3.5987,3.596,3.5961,3.596,3.594,3.594,3.5924,3.5928,3.5906,3.5901,3.5906,3.5888,3.5893,3.5872,3.5875,3.5839,3.5845,3.5842,3.5843,3.5817,3.582,3.5733,3.5722,3.5801,3.58,3.5799,0,3.5939,3.592,3.592,3.5911,3.5909,3.5893,3.5885,3.5896,3.5887,3.5879,3.5863,3.5847,3.5835,3.5805,3.5805,3.579,3.5795,3.5766,3.5792,3.579,3.5794,3.5795,3.5793,3.576,3.5759,3.5758,3.5758,0,3.5867,3.5873,3.5861,3.5851,3.5841,3.5833,3.5826,3.5817,3.5828,3.5816,3.5799,3.5789,3.577,3.5753,3.574,3.5736,3.5748,3.575,3.5743,3.5739,3.5738,3.5738,3.5827,3.5751,3.5752,3.5752,3.5753,3.5753,3.5814,3.5798,3.5796,3.5783,3.5779,3.5773,3.5759,3.5761,3.5748,3.5734,3.5742,3.5722,3.5716,3.5699,3.5694,3.5678,3.5689,3.5679,3.5676,3.5674,3.567,3.5742,3.5675,3.5675,3.5676,3.5676,3.5676,0,3.5742,3.5743,3.573,3.5722,3.5711,3.5726,3.5719,3.5709,3.5692,3.5686,3.5675,3.5655,3.5639,3.5639,3.5625,3.5611,3.5617,3.5607,3.5608,3.5607,3.5661,3.5669,3.5603,3.5603,3.5603,3.5603,3.5603,3.5603,3.5704,3.5679,3.5685,3.5658,3.5658,3.564,3.5635,3.5629,3.5625,3.5603,3.5591,3.5593,3.5589,3.5575,3.5561,3.5561,3.5554,3.5543,3.5545,3.5596,3.5603,3.561,3.5617,3.5541,3.5541,3.5492,3.5491,3.5491]}]]